| time (UTC) | temp C | wind direction | speed KPH | gust KPH | rain 1hr cm | rain 24hr cm | rain mn cm | humidity % | barometer mb |
| 20260906162153 | 17 | 0.0 | 1.6 | 0.00 | 0.00 | 0.00 | 79 | 1014.9 | |
| 20260906161139 | 17 | 303 | 1.6 | 3.2 | 0.00 | 0.00 | 0.00 | 78 | 1014.9 |
| 20260906160146 | 17 | 0.0 | 1.6 | 0.00 | 0.00 | 0.00 | 79 | 1015.0 | |
| 20260906155205 | 17 | 0.0 | 0.0 | 0.00 | 0.00 | 0.00 | 81 | 1015.0 | |
| 20260906154205 | 17 | 327 | 0.0 | 1.6 | 0.00 | 0.00 | 0.00 | 82 | 1015.2 |
| 20260906153151 | 16 | 0.0 | 0.0 | 0.00 | 0.00 | 0.00 | 81 | 1015.0 | |
| 20260906152137 | 17 | 0.0 | 0.0 | 0.00 | 0.00 | 0.00 | 85 | 1015.0 | |
| 20260906151156 | 17 | 0.0 | 0.0 | 0.00 | 0.00 | 0.00 | 84 | 1015.1 | |
| 20260906150142 | 17 | 0.0 | 0.0 | 0.00 | 0.00 | 0.00 | 82 | 1015.2 | |
| 20260906145148 | 16 | 0.0 | 0.0 | 0.00 | 0.00 | 0.00 | 83 | 1015.2 | |
| 20260906144208 | 17 | 0.0 | 1.6 | 0.00 | 0.00 | 0.00 | 82 | 1014.9 | |
| 20260906143134 | 17 | 303 | 0.0 | 4.8 | 0.00 | 0.00 | 0.00 | 83 | 1015.0 |
| 20260906142154 | 16 | 0.0 | 1.6 | 0.00 | 0.00 | 0.00 | 86 | 1015.0 | |
| 20260906141220 | 16 | 0.0 | 0.0 | 0.00 | 0.00 | 0.00 | 87 | 1014.9 | |
| 20260906140159 | 16 | 316 | 1.6 | 3.2 | 0.00 | 0.00 | 0.00 | 88 | 1014.8 |
| 20260906135145 | 16 | 0.0 | 1.6 | 0.00 | 0.00 | 0.00 | 92 | 1014.7 | |
| 20260906134131 | 15 | 0.0 | 0.0 | 0.00 | 0.00 | 0.00 | 93 | 1014.8 | |
| 20260906133151 | 15 | 0.0 | 1.6 | 0.00 | 0.00 | 0.00 | 94 | 1015.0 | |
| 20260906132137 | 16 | 0.0 | 0.0 | 0.00 | 0.00 | 0.00 | 95 | 1015.1 | |
| 20260906131156 | 15 | 0.0 | 1.6 | 0.00 | 0.00 | 0.00 | 96 | 1014.9 | |
| 20260906130142 | 15 | 249 | 1.6 | 3.2 | 0.00 | 0.00 | 0.00 | 96 | 1015.0 |
| 20260906125202 | 15 | 0.0 | 0.0 | 0.00 | 0.00 | 0.00 | 96 | 1014.9 | |
| 20260906124149 | 15 | 0.0 | 0.0 | 0.00 | 0.00 | 0.00 | 97 | 1014.9 | |
| 20260906123135 | 15 | 0.0 | 0.0 | 0.00 | 0.00 | 0.00 | 97 | 1014.8 | |
| 20260906122154 | 15 | 0.0 | 0.0 | 0.00 | 0.00 | 0.00 | 97 | 1014.6 | |
| 20260906121220 | 15 | 0.0 | 0.0 | 0.00 | 0.00 | 0.00 | 97 | 1014.5 | |
| 20260906120159 | 15 | 0.0 | 0.0 | 0.00 | 0.00 | 0.00 | 97 | 1014.5 | |
| 20260906115146 | 15 | 0.0 | 0.0 | 0.00 | 0.00 | 0.00 | 97 | 1014.5 | |
| 20260906114205 | 15 | 0.0 | 0.0 | 0.00 | 0.00 | 0.00 | 97 | 1014.4 | |
| 20260906113151 | 15 | 0.0 | 0.0 | 0.00 | 0.00 | 0.00 | 97 | 1014.4 | |
| 20260906112138 | 15 | 0.0 | 0.0 | 0.00 | 0.00 | 0.00 | 97 | 1014.0 | |
| 20260906111217 | 15 | 0.0 | 0.0 | 0.00 | 0.00 | 0.00 | 97 | 1014.0 | |
| 20260906110144 | 15 | 0.0 | 0.0 | 0.00 | 0.00 | 0.00 | 96 | 1013.8 | |
| 20260906105203 | 14 | 0.0 | 0.0 | 0.00 | 0.00 | 0.00 | 96 | 1013.7 | |
| 20260906104149 | 15 | 0.0 | 0.0 | 0.00 | 0.00 | 0.00 | 96 | 1013.7 | |
| 20260906103229 | 15 | 0.0 | 0.0 | 0.00 | 0.00 | 0.00 | 96 | 1013.7 | |
| 20260906102155 | 15 | 0.0 | 0.0 | 0.00 | 0.00 | 0.00 | 96 | 1013.5 | |
| 20260906101141 | 15 | 0.0 | 0.0 | 0.00 | 0.00 | 0.00 | 96 | 1013.6 | |
| 20260906100220 | 15 | 0.0 | 0.0 | 0.00 | 0.00 | 0.00 | 96 | 1013.8 | |
| 20260906095226 | 15 | 0.0 | 0.0 | 0.00 | 0.00 | 0.00 | 95 | 1013.5 | |
| 20260906094206 | 15 | 0.0 | 0.0 | 0.00 | 0.00 | 0.00 | 95 | 1013.4 | |
| 20260906093212 | 15 | 0.0 | 0.0 | 0.00 | 0.00 | 0.00 | 95 | 1013.3 | |
| 20260906092211 | 15 | 0.0 | 0.0 | 0.00 | 0.00 | 0.00 | 95 | 1013.3 | |
| 20260906091217 | 15 | 0.0 | 0.0 | 0.00 | 0.00 | 0.00 | 95 | 1013.2 | |
| 20260906090204 | 15 | 0.0 | 0.0 | 0.00 | 0.00 | 0.00 | 95 | 1012.9 | |
| 20260906085203 | 15 | 0.0 | 0.0 | 0.00 | 0.00 | 0.00 | 95 | 1013.0 | |
| 20260906084149 | 15 | 0.0 | 0.0 | 0.00 | 0.00 | 0.00 | 95 | 1012.8 | |
| 20260906083209 | 15 | 0.0 | 0.0 | 0.00 | 0.00 | 0.00 | 95 | 1012.7 | |
| 20260906082155 | 16 | 0.0 | 0.0 | 0.00 | 0.00 | 0.00 | 95 | 1012.7 | |
| 20260906081215 | 16 | 0.0 | 0.0 | 0.00 | 0.00 | 0.00 | 95 | 1012.6 | |
| 20260906080200 | 16 | 0.0 | 0.0 | 0.00 | 0.00 | 0.00 | 95 | 1012.3 | |
| 20260906075147 | 16 | 0.0 | 0.0 | 0.00 | 0.00 | 0.00 | 95 | 1012.5 | |
| 20260906074206 | 16 | 0.0 | 0.0 | 0.00 | 0.00 | 0.00 | 94 | 1012.4 | |
| 20260906073152 | 16 | 0.0 | 0.0 | 0.00 | 0.00 | 0.00 | 95 | 1012.5 | |
| 20260906072212 | 16 | 0.0 | 0.0 | 0.00 | 0.00 | 0.00 | 95 | 1012.3 | |
| 20260906071158 | 16 | 0.0 | 0.0 | 0.00 | 0.00 | 0.00 | 95 | 1012.4 | |
| 20260906070237 | 16 | 0.0 | 0.0 | 0.00 | 0.00 | 0.00 | 95 | 1012.4 | |
| 20260906065203 | 16 | 0.0 | 0.0 | 0.00 | 0.00 | 0.00 | 94 | 1012.5 | |
| 20260906064149 | 16 | 0.0 | 0.0 | 0.00 | 0.00 | 0.00 | 94 | 1012.5 | |
| 20260906063249 | 16 | 0.0 | 0.0 | 0.00 | 0.00 | 0.00 | 94 | 1012.3 | |
| 20260906062155 | 16 | 0.0 | 0.0 | 0.00 | 0.00 | 0.00 | 94 | 1012.3 | |
| 20260906061215 | 16 | 0.0 | 0.0 | 0.00 | 0.00 | 0.00 | 94 | 1012.4 | |
| 20260906060201 | 16 | 0.0 | 0.0 | 0.00 | 0.00 | 0.00 | 94 | 1012.3 | |
| 20260906055220 | 16 | 0.0 | 0.0 | 0.00 | 0.00 | 0.00 | 93 | 1012.4 | |
| 20260906054206 | 16 | 0.0 | 0.0 | 0.00 | 0.00 | 0.00 | 93 | 1012.4 | |
| 20260906053153 | 16 | 0.0 | 0.0 | 0.00 | 0.00 | 0.00 | 93 | 1012.4 | |
| 20260906052212 | 16 | 0.0 | 0.0 | 0.00 | 0.00 | 0.00 | 92 | 1012.6 | |
| 20260906051158 | 16 | 0.0 | 0.0 | 0.00 | 0.00 | 0.00 | 92 | 1012.7 | |
| 20260906050238 | 16 | 0.0 | 0.0 | 0.00 | 0.00 | 0.00 | 92 | 1012.9 | |
| 20260906045204 | 16 | 0.0 | 0.0 | 0.00 | 0.00 | 0.00 | 92 | 1012.7 | |
| 20260906044223 | 16 | 0.0 | 0.0 | 0.00 | 0.00 | 0.00 | 91 | 1012.5 | |
| 20260906043209 | 16 | 0.0 | 0.0 | 0.00 | 0.00 | 0.00 | 91 | 1012.7 | |
| 20260906042155 | 16 | 0.0 | 0.0 | 0.00 | 0.00 | 0.00 | 91 | 1012.5 | |
| 20260906041215 | 16 | 0.0 | 0.0 | 0.00 | 0.00 | 0.00 | 90 | 1012.5 | |
| 20260906040234 | 16 | 0.0 | 0.0 | 0.00 | 0.00 | 0.00 | 89 | 1012.6 | |
| 20260906035221 | 16 | 0.0 | 0.0 | 0.00 | 0.00 | 0.00 | 89 | 1012.4 | |
| 20260906034207 | 16 | 0.0 | 0.0 | 0.00 | 0.00 | 0.00 | 89 | 1012.3 | |
| 20260906033226 | 16 | 0.0 | 0.0 | 0.00 | 0.00 | 0.00 | 87 | 1012.2 | |
| 20260906032212 | 16 | 0.0 | 0.0 | 0.00 | 0.00 | 0.00 | 86 | 1012.3 | |
| 20260906031159 | 16 | 0.0 | 0.0 | 0.00 | 0.00 | 0.00 | 86 | 1012.1 | |
| 20260906030218 | 16 | 0.0 | 0.0 | 0.00 | 0.00 | 0.00 | 85 | 1012.3 | |
| 20260906025204 | 17 | 0.0 | 0.0 | 0.00 | 0.00 | 0.00 | 86 | 1012.3 | |
| 20260906024224 | 17 | 0.0 | 0.0 | 0.00 | 0.00 | 0.00 | 86 | 1012.4 | |
| 20260906023210 | 17 | 0.0 | 0.0 | 0.00 | 0.00 | 0.00 | 85 | 1012.5 | |
| 20260906022216 | 17 | 0.0 | 0.0 | 0.00 | 0.00 | 0.00 | 85 | 1012.4 | |
| 20260906021216 | 17 | 0.0 | 0.0 | 0.00 | 0.00 | 0.00 | 85 | 1012.2 | |
| 20260906020202 | 17 | 0.0 | 0.0 | 0.00 | 0.00 | 0.00 | 85 | 1012.3 | |
| 20260906015221 | 17 | 0.0 | 0.0 | 0.00 | 0.00 | 0.00 | 85 | 1012.3 | |
| 20260906014228 | 17 | 0.0 | 0.0 | 0.00 | 0.00 | 0.00 | 85 | 1012.4 | |
| 20260906013227 | 17 | 0.0 | 0.0 | 0.00 | 0.00 | 0.00 | 86 | 1012.3 | |
| 20260906012214 | 17 | 0.0 | 0.0 | 0.00 | 0.00 | 0.00 | 86 | 1012.3 | |
| 20260906011200 | 17 | 0.0 | 0.0 | 0.00 | 0.00 | 0.00 | 85 | 1012.4 | |
| 20260906010219 | 17 | 0.0 | 0.0 | 0.00 | 0.00 | 0.00 | 85 | 1012.2 | |
| 20260906005205 | 17 | 0.0 | 0.0 | 0.00 | 0.00 | 0.00 | 85 | 1012.3 | |
| 20260906004225 | 17 | 0.0 | 0.0 | 0.00 | 0.00 | 0.00 | 85 | 1012.1 | |
| 20260906003231 | 17 | 0.0 | 0.0 | 0.00 | 0.00 | 0.00 | 85 | 1011.9 | |
| 20260906002230 | 17 | 0.0 | 0.0 | 0.00 | 0.00 | 0.00 | 85 | 1011.8 | |
| 20260906001216 | 17 | 0.0 | 0.0 | 0.00 | 0.00 | 0.00 | 85 | 1011.9 | |
| 20260906000149 | 17 | 0.0 | 0.0 | 0.00 | 0.00 | 0.00 | 84 | 1011.6 | |
| 20260905235115 | 17 | 0.0 | 0.0 | 0.00 | 0.00 | 0.00 | 83 | 1011.6 | |
| 20260905234102 | 17 | 0.0 | 0.0 | 0.00 | 0.00 | 0.00 | 84 | 1011.7 | |
| 20260905233141 | 17 | 0.0 | 0.0 | 0.00 | 0.00 | 0.00 | 83 | 1011.6 | |
| 20260905232107 | 17 | 0.0 | 0.0 | 0.00 | 0.00 | 0.00 | 82 | 1011.6 | |
| 20260905231127 | 17 | 0.0 | 0.0 | 0.00 | 0.00 | 0.00 | 82 | 1011.4 | |
| 20260905230113 | 18 | 0.0 | 0.0 | 0.00 | 0.00 | 0.00 | 81 | 1011.2 | |
| 20260905225213 | 18 | 0.0 | 0.0 | 0.00 | 0.00 | 0.00 | 80 | 1011.3 | |
| 20260905224139 | 18 | 0.0 | 0.0 | 0.00 | 0.00 | 0.00 | 80 | 1011.4 | |
| 20260905223106 | 18 | 0.0 | 0.0 | 0.00 | 0.00 | 0.00 | 80 | 1011.4 | |
| 20260905222125 | 18 | 0.0 | 0.0 | 0.00 | 0.00 | 0.00 | 80 | 1011.4 | |
| 20260905221110 | 18 | 301 | 0.0 | 1.6 | 0.00 | 0.00 | 0.00 | 81 | 1011.3 |
| 20260905220130 | 18 | 0.0 | 1.6 | 0.00 | 0.00 | 0.00 | 81 | 1011.3 | |
| 20260905215116 | 18 | 308 | 3.2 | 8.0 | 0.00 | 0.00 | 0.00 | 82 | 1011.0 |
| 20260905214136 | 18 | 0.0 | 1.6 | 0.00 | 0.00 | 0.00 | 82 | 1010.9 | |
| 20260905213122 | 18 | 0.0 | 0.0 | 0.00 | 0.00 | 0.00 | 82 | 1010.8 | |
| 20260905212108 | 18 | 0.0 | 0.0 | 0.00 | 0.00 | 0.00 | 81 | 1010.9 | |
| 20260905211128 | 19 | 0.0 | 0.0 | 0.00 | 0.00 | 0.00 | 79 | 1010.8 | |
| 20260905210134 | 19 | 0.0 | 3.2 | 0.00 | 0.00 | 0.00 | 78 | 1010.9 | |
| 20260905205134 | 20 | 322 | 3.2 | 4.8 | 0.00 | 0.00 | 0.00 | 78 | 1010.7 |
| 20260905204121 | 20 | 275 | 1.6 | 1.6 | 0.00 | 0.00 | 0.00 | 79 | 1010.7 |
| 20260905203140 | 20 | 0.0 | 1.6 | 0.00 | 0.00 | 0.00 | 80 | 1010.7 | |
| 20260905202125 | 20 | 297 | 0.0 | 1.6 | 0.00 | 0.00 | 0.00 | 78 | 1010.4 |
| 20260905201111 | 20 | 352 | 1.6 | 4.8 | 0.00 | 0.00 | 0.00 | 76 | 1010.2 |
| 20260905200151 | 20 | 0.0 | 1.6 | 0.00 | 0.00 | 0.00 | 77 | 1010.1 | |
| 20260905195117 | 20 | 0.0 | 1.6 | 0.00 | 0.00 | 0.00 | 77 | 1010.0 | |
| 20260905194137 | 21 | 281 | 0.0 | 3.2 | 0.00 | 0.00 | 0.00 | 76 | 1010.0 |
| 20260905193122 | 21 | 0.0 | 0.0 | 0.00 | 0.00 | 0.00 | 75 | 1010.2 | |
| 20260905192141 | 20 | 25 | 0.0 | 3.2 | 0.00 | 0.00 | 0.00 | 76 | 1010.3 |
| 20260905191128 | 20 | 308 | 1.6 | 3.2 | 0.00 | 0.00 | 0.00 | 77 | 1010.1 |
| 20260905190114 | 20 | 321 | 1.6 | 4.8 | 0.00 | 0.00 | 0.00 | 77 | 1010.1 |
| 20260905185153 | 20 | 0.0 | 0.0 | 0.00 | 0.00 | 0.00 | 79 | 1010.3 | |
| 20260905184119 | 19 | 291 | 0.0 | 3.2 | 0.00 | 0.00 | 0.00 | 82 | 1010.2 |
| 20260905183139 | 19 | 284 | 0.0 | 1.6 | 0.00 | 0.00 | 0.00 | 83 | 1010.3 |
| 20260905182125 | 20 | 0.0 | 0.0 | 0.00 | 0.00 | 0.00 | 82 | 1010.4 | |
| 20260905181145 | 20 | 335 | 0.0 | 1.6 | 0.00 | 0.00 | 0.00 | 79 | 1010.3 |
| 20260905180151 | 21 | 295 | 1.6 | 4.8 | 0.00 | 0.00 | 0.00 | 79 | 1010.2 |
| 20260905175137 | 20 | 2 | 1.6 | 1.6 | 0.00 | 0.00 | 0.00 | 79 | 1010.1 |
| 20260905174136 | 20 | 310 | 1.6 | 1.6 | 0.00 | 0.00 | 0.00 | 79 | 1009.9 |
| 20260905173123 | 21 | 0.0 | 3.2 | 0.00 | 0.00 | 0.00 | 78 | 1009.8 | |
| 20260905172142 | 20 | 0.0 | 0.0 | 0.00 | 0.00 | 0.00 | 79 | 1009.9 | |
| 20260905171129 | 21 | 0.0 | 0.0 | 0.00 | 0.00 | 0.00 | 79 | 1009.6 | |
| 20260905170148 | 20 | 316 | 1.6 | 3.2 | 0.00 | 0.00 | 0.00 | 80 | 1009.9 |
| 20260905165135 | 20 | 294 | 0.0 | 1.6 | 0.00 | 0.00 | 0.00 | 81 | 1009.7 |
| 20260905164121 | 20 | 0.0 | 0.0 | 0.00 | 0.00 | 0.00 | 81 | 1009.5 | |
| 20260905163140 | 20 | 10 | 0.0 | 1.6 | 0.00 | 0.00 | 0.00 | 80 | 1009.8 |